Bookmark and Share
Track history (hours):
 

Oceanographic research ship Nathaniel B. Palmer (USA)

Contact: Capt. Daniel R. Herlihy, NOAA (Ret.). daniel.herlihy@usap.gov

Detailed information on ship capabilities available from University of Delaware's Ocean Information Center and ARCUS's ALIAS (Arctic Logistics Information and Support) project.

More information available from US FCC via Universal Licensing System and Coast Guard Vessel Documentation Center.

Last reported at 2014-Apr-16 12:00 UTC. Time now 2014-Apr-16 13:03 UTC.
Position S 47°12' W 149°54'.

Type: Other ship. MMSI: 366610000.

Wind from 300 at 21 knots

Barometer 1013.3 mb
Air temperature 13.6 ° C
Water temperature 13.8 ° C

NotesDate/timePositionNaut miles runAvg speedWind from/ knotsBaromVisibWave heightAir tempDewpointWater temp
2014-Apr-16 12:00S 47°12' W 149°54'18 9.0 300 / 211013.3 13.6 13.8
2014-Apr-16 10:00S 47°30' W 149°54'36 4.5 280 / 181013.8 13.3 13.1
2014-Apr-16 02:00S 48°06' W 149°54'6 3.0 290 / 111012.6 12.7 12.2
2014-Apr-16 00:00S 48°12' W 149°54'0 0.0 240 / 141013.3 13.0 12.2
2014-Apr-15 22:00S 48°12' W 149°54'0 0.0 320 / 211013.6 13.0 12.2
2014-Apr-15 20:00S 48°12' W 149°54'36 9.0 260 / 231013.2 13.3 12.2
2014-Apr-15 16:00S 48°48' W 149°54'6 3.0 340 / 291010.5 13.7 12.3
2014-Apr-15 14:00S 48°54' W 149°54'0 0.0 170 / 251012.7 13.5 12.2
2014-Apr-15 12:00S 48°54' W 149°54'0 0.0 290 / 191014.1 13.3 12.2
2014-Apr-15 10:00S 48°54' W 149°54'0 0.0 280 / 151015.5 13.0 12.2
2014-Apr-15 08:00S 48°54' W 149°54'0 0.0 270 / 181017.1 12.9 12.2
2014-Apr-15 04:00S 48°54' W 149°54'24 6.0 210 / 141018.5 12.3 12.2
2014-Apr-15 00:00S 49°18' W 149°54'6 3.0 330 / 131017.6 12.1 11.2
2014-Apr-14 22:00S 49°24' W 149°54'12 2.0 230 / 151018.6 12.4 11.1
2014-Apr-14 16:00S 49°36' W 149°54'18 9.0 020 / 151020.0 12.0 11.4
2014-Apr-14 14:00S 49°54' W 149°54'0 0.0 020 / 141020.2 11.6 11.0
2014-Apr-14 12:00S 49°54' W 149°54'0 0.0 240 / 161020.9 11.5 11.0
2014-Apr-14 10:00S 49°54' W 149°54'12 6.0 320 / 191021.5 11.1 10.9
2014-Apr-14 08:00S 50°06' W 149°54'18 4.5 060 / 261022.3 10.3 10.9
2014-Apr-14 04:00S 50°24' W 149°54'6 3.0 160 / 251023.3 9.2 11.0
2014-Apr-14 02:00S 50°30' W 149°54'18 9.0 090 / 271022.9 9.1 11.0
2014-Apr-14 00:00S 50°48' W 149°54'6 3.0 100 / 221023.5 8.2 10.9
2014-Apr-13 22:00S 50°54' W 149°54'0 0.0 260 / 261022.8 8.2 11.0
2014-Apr-13 20:00S 50°54' W 149°54'6 3.0 250 / 281021.8 8.2 11.0
2014-Apr-13 18:00S 51°00' W 149°54'2412.0 140 / 241020.3 8.6 11.3
2014-Apr-13 16:00S 51°24' W 149°54'0 0.0 250 / 71017.5 11.4 11.3
2014-Apr-13 12:00S 51°24' W 149°54'18 9.0 310 / 201014.4 11.7 11.3
2014-Apr-13 10:00S 51°42' W 149°54'12 6.0 320 / 231013.8 11.5 10.9
2014-Apr-13 08:00S 51°54' W 149°54'24 4.0 280 / 271014.7 11.3 10.7
2014-Apr-13 02:00S 52°18' W 149°54'6 3.0 330 / 291015.0 10.4 10.3
2014-Apr-13 00:00S 52°24' W 149°54'0 0.0 340 / 301018.4 10.0 10.2
2014-Apr-12 22:00S 52°24' W 149°54'0 0.0 350 / 301020.7 9.9 10.3
2014-Apr-12 20:00S 52°24' W 149°54'0 0.0 080 / 311022.5 10.4 10.4
2014-Apr-12 18:00S 52°24' W 149°54'12 6.0 290 / 301023.6 10.0 10.3
2014-Apr-12 16:00S 52°36' W 149°54'18 9.0 330 / 281023.0 9.9 10.3
2014-Apr-12 14:00S 52°54' W 149°54'0 0.0 310 / 281025.5 9.8 10.2
2014-Apr-12 12:00S 52°54' W 149°54'0 0.0 170 / 221027.0 9.3 10.2
2014-Apr-12 10:00S 52°54' W 149°54'12 6.0 300 / 241028.1 9.0 10.3
2014-Apr-12 08:00S 53°06' W 149°54'24 4.0 300 / 271026.6 9.1 10.3
2014-Apr-12 02:00S 53°30' W 149°48'18 9.0 300 / 221027.7 8.4 9.9
2014-Apr-12 00:00S 53°48' W 149°48'7 1.7 300 / 211027.8 7.7 8.4
2014-Apr-11 20:00S 53°54' W 149°54'12 6.0 190 / 181029.4 7.0 8.1
2014-Apr-11 18:00S 54°06' W 149°54'18 9.0 280 / 171028.5 6.4 6.2
2014-Apr-11 16:00S 54°24' W 149°54'0 0.0 340 / 131028.5 5.5 6.1
2014-Apr-11 14:00S 54°24' W 149°54'6 3.0 280 / 141028.5 5.1 6.1
2014-Apr-11 12:00S 54°30' W 149°54'18 9.0 250 / 151027.1 5.3 6.3
2014-Apr-11 10:00S 54°48' W 149°54'6 1.0 250 / 171025.8 5.1 6.5
2014-Apr-11 04:00S 54°54' W 149°54'10 5.2 300 / 231020.6 5.3 6.5
2014-Apr-11 02:00S 54°54' W 150°12'0 0.0 230 / 301018.4 5.2 6.2
2014-Apr-11 00:00S 54°54' W 150°12'14 3.5 260 / 291014.6 5.4 6.2
2014-Apr-10 20:00S 54°54' W 149°48'3 1.7 310 / 391008.7 6.2 6.5
2014-Apr-10 18:00S 54°54' W 149°42'7 1.7 260 / 411006.1 5.3 6.4
2014-Apr-10 14:00S 54°54' W 149°54'18 9.0 290 / 361002.8 6.4 6.7
2014-Apr-10 12:00S 55°12' W 149°54'12 6.0 290 / 311004.3 6.1 6.0
2014-Apr-10 10:00S 55°24' W 149°54'30 5.0 350 / 271007.2 5.3 5.7
2014-Apr-10 04:00S 55°54' W 149°54'0 0.0 290 / 261006.1 4.9 5.0
2014-Apr-10 02:00S 55°54' W 149°54'3 1.7 300 / 231005.0 5.2 5.0
2014-Apr-10 00:00S 55°54' W 149°48'7 3.4 270 / 321003.3 6.5 5.1
2014-Apr-09 22:00S 55°48' W 149°54'12 6.0 360 / 401003.7 6.4 5.0
2014-Apr-09 20:00S 56°00' W 149°54'12 6.0 330 / 331005.9 6.1 5.1
2014-Apr-09 18:00S 56°12' W 149°54'12 6.0 340 / 311008.2 5.7 4.6
2014-Apr-09 16:00S 56°24' W 149°54'0 0.0 020 / 281013.5 5.2 4.4
2014-Apr-09 14:00S 56°24' W 149°54'60 6.0 320 / 301014.8 4.8 4.0
2014-Apr-09 04:00S 57°24' W 149°54'6 1.5 330 / 291019.2 3.5 2.1
2014-Apr-09 00:00S 57°30' W 149°54'18 9.0 290 / 301016.5 3.2 2.0
2014-Apr-08 22:00S 57°48' W 149°54'72 7.2 290 / 281015.7 2.9 2.0
2014-Apr-08 12:00S 59°00' W 149°54'60 7.5 270 / 281010.7 1.8 1.2
2014-Apr-08 04:00S 60°00' W 149°54'18 9.0 270 / 211004.9 0.9 1.0
2014-Apr-08 02:00S 60°18' W 149°54'2412.0 280 / 231003.9 1.1 1.0
2014-Apr-08 00:00S 60°42' W 149°54'12 6.0 290 / 221002.3 1.1 1.1
2014-Apr-07 22:00S 60°54' W 149°54'0 0.0 300 / 201004.0 0.8 1.0
2014-Apr-07 20:00S 60°54' W 149°54'12 6.0 270 / 151004.5 0.8 1.0
2014-Apr-07 18:00S 60°42' W 149°54'18 9.0 270 / 171005.0 0.4 1.1
2014-Apr-07 16:00S 60°24' W 149°54'0 0.0 260 / 151005.3 0.4 1.0
2014-Apr-07 14:00S 60°24' W 149°54'6 3.0 240 / 181003.5 0.5 1.0
2014-Apr-07 12:00S 60°18' W 149°54'24 3.0 220 / 171002.4 0.4 1.0
2014-Apr-07 04:00S 59°54' W 149°54'18 9.0 260 / 261004.8 2.2 1.0
2014-Apr-07 02:00S 59°36' W 149°54'18 9.0 300 / 221006.4 2.3 1.2
2014-Apr-07 00:00S 59°18' W 149°54'18 9.0 310 / 221008.2 2.3 1.2
2014-Apr-06 22:00S 59°00' W 149°54'6 3.0 300 / 221010.5 2.4 1.3
2014-Apr-06 20:00S 58°54' W 149°54'0 0.0 340 / 311011.7 2.8 1.2
2014-Apr-06 18:00S 58°54' W 149°54'12 6.0 180 / 321012.3 2.7 1.1
2014-Apr-06 16:00S 58°42' W 149°54'2412.0 300 / 231014.9 2.2 1.1
2014-Apr-06 14:00S 58°18' W 149°54'18 9.0 290 / 171017.0 1.7 1.1
2014-Apr-06 12:00S 58°00' W 149°54'   270 / 201017.3 2.2 1.2

Dump ship's entire track history

sailing weather and tide predictions

Nathaniel B. Palmer — WBP3210 — position and weather